Miscellaneous Local Product
Issued by NWS North Platte, NE

Home | Current Version | Previous Version | Graphics & Text | Print | Product List | Glossary On
Versions: 1 2 3 4 5 6 7 8 9 10 11 12 13 14 15 16 17 18 19 20 21 22 23 24 25 26 27 28 29 30 31 32 33 34 35 36 37 38 39 40 41 42 43 44 45 46 47 48 49 50
224
AXUS43 KLBF 160810
MISLBF


WESTERN AND NORTH CENTRAL NEBRASKA HOURLY WEATHER ROUNDUP
NATIONAL WEATHER SERVICE NORTH PLATTE NE
200 AM CST TUE JAN 16 2018

NOTE: "FAIR" INDICATES FEW OR NO CLOUDS BELOW 12,000 FEET WITH NO
SIGNIFICANT WEATHER AND/OR OBSTRUCTIONS TO VISIBILITY.

NOTE: STATIONS NOT REPORTING VARIABLES SUCH AS SKY/WEATHER OR
PRESSURE ARE PROVIDED BY RAWS AND APRS NETWORKS AND ARE NOT UNDER
NATIONAL WEATHER SERVICE QUALITY CONTROL.

...OBSERVATIONS IN AND NEAR THE EASTERN PANHANDLE OF NEBRASKA...

CITY           SKY/WX    TMP DP  RH WIND       PRES   REMARKS
PINE RIDGE     CLEAR    -19 -22  86 CALM      30.66F
GORDON         FAIR     -10 -15  77 W8        30.62F WCI -26
CHADRON        CLEAR    -14 -19  79 W5        30.67F WCI -26
ALLIANCE       CLEAR    -17 -20  86 W7        30.60F WCI -33
SIDNEY         CLEAR     -4  -9  79 W5        30.57F WCI -15
CRESCENT LAKE    N/A     -8 -14  75 NW7         N/A  WCI -23
$$

...OBSERVATIONS IN NORTHERN NEBRASKA AND FAR SOUTHERN SOUTH DAKOTA...

CITY           SKY/WX    TMP DP  RH WIND       PRES   REMARKS
WINNER         FAIR      -5 -12  72 NW8       30.76F WCI -20
VALENTINE      CLEAR     -8 -15  71 NW8       30.71F WCI -24
AINSWORTH      MOCLDY    -6 -12  74 NW13      30.69F WCI -25
O`NEILL        CLOUDY    -3  -8  79 NW21      30.70F WCI -27
THEDFORD       CLEAR     -5 -12  71 NW10      30.67S WCI -22
BROKEN BOW     CLEAR     -3 -13  62 N18       30.67S WCI -25
ORD            CLOUDY    -2 -10  69 NW17      30.69F WCI -23
ALBION         CLOUDY     0  -8  71 NW17G26   30.68S WCI -21
VALENTINE NWR    N/A     -8 -17  64 NW9G17      N/A  WCI -25
HALSEY           N/A     -7 -16  64 NW8G17      N/A  WCI -23
BUTTE            N/A     -4  -9  80 NW12G18     N/A  WCI -22
CHAMBERS         N/A     -3 -13  60 NW5         N/A  WCI -13
EWING            N/A     -3  -8  79 NW15G22     N/A  WCI -23
$$

...OBSERVATIONS IN SOUTHWEST NEBRASKA AND FAR NORTHEAST COLORADO...

CITY           SKY/WX    TMP DP  RH WIND       PRES   REMARKS
WRAY           FAIR      -4  -8  84 W6        30.65S WCI -16
HOLYOKE        FAIR       1  -6  71 NW8       30.63S WCI -12
IMPERIAL       CLEAR     -1  -8  72 NW10      30.66F WCI -17
OGALLALA       CLEAR     -4 -10  76 W3        30.67S
NORTH PLATTE   CLEAR     -2 -12  62 NW13      30.68F WCI -20
MCCOOK         CLEAR      1  -8  66 NW13      30.70F WCI -17
LEXINGTON      CLEAR      0  -9  65 NW14G21   30.70S WCI -19
STAPLETON        N/A     -6 -12  75 NW3         N/A
GOTHENBURG       N/A     -5 -12  70 NW8         N/A  WCI -20
CALLAWAY         N/A     -6 -12  75 N13         N/A  WCI -25
$$

...OBSERVATIONS IN CENTRAL LINCOLN COUNTY AREA...

CITY           SKY/WX    TMP DP  RH WIND       PRES   REMARKS
N.P. AIRPORT   CLEAR     -2 -12  62 NW13      30.68F WCI -20
N.P. DOWNTOWN    N/A     -3 -11  68 CALM        N/A
N.P. SOUTHEAST   N/A     -3 -12  66 NW7G15      N/A  WCI -16
N.P. HILLCREST   N/A     -3 -10  70 NW9         N/A  WCI -19
$$

...SOME OBSERVATIONS FROM AROUND THE REGION...

CITY           SKY/WX    TMP DP  RH WIND       PRES   REMARKS
DENVER         CLEAR     -4 -11  72 S12       30.48F WCI -22
BERTHOUD PASS  FAIR       0 -11  60 NW20G29   30.20F WCI -22
GRAND JUNCTION CLEAR     29  10  45 CALM      30.37F
LARAMIE        CLEAR     -1  -8  72 S7        30.37F WCI -14
CHEYENNE       CLEAR     -2  -7  79 W7        30.42F WCI -15
CASPER         PTCLDY    -2  -7  79 S5        30.46F WCI -12
BISMARCK       CLEAR    -21 -26  77 CALM      30.82F
RAPID CITY     CLEAR    -10 -14  82 CALM      30.65F
PIERRE         CLEAR     -7 -14  71 NW10      30.79F WCI -25
SIOUX FALLS    CLOUDY    -3  -8  79 N15       30.69R WCI -23
OMAHA          CLEAR     -2 -10  69 NW15      30.70S WCI -22
GRAND ISLAND   MOCLDY    -2  -9  72 NW18      30.69S WCI -24
SCOTTSBLUFF    CLEAR     -7 -12  79 N6        30.60F WCI -20
KANSAS CITY    CLEAR     -3 -10  72 NW7       30.68R WCI -16
HILL CITY      CLEAR      2  -6  69 NW8       30.72F WCI -12
WICHITA        PTCLDY     5  -2  72 NW9       30.74F WCI  -9
DODGE CITY     CLEAR     -1  -7  75 NW9       30.69S WCI -16
OKLAHOMA CITY  CLOUDY    11  -3  53 N24G31    30.72S WCI  -9
DALLAS         CLOUDY    27   7  42 N24       30.65R WCI  12
AMARILLO       CLOUDY    11  -3  53 N12       30.62S WCI  -3
$$




USA.gov is the U.S. government's official web portal to all federal, state and local government web resources and services.